Date,Time,Wind Direction (degTN),Wind Speed (m/s),Wind Sigma Theta (deg),Wind Speed Std Dev (m/s),Air Temperature (degC),Relative Humidity (%),Rainfall (mm),Barometric Pressure (hPa)
01/01/2013,00:00,120,6.6,5.3,1.1,23.7,86.4,0.0,1007
01/01/2013,01:00,123,6.8,4.6,0.9,23.3,85.5,0.0,1006
01/01/2013,02:00,118,7.0,4.1,0.9,23.3,87.7,0.0,1005
01/01/2013,03:00,118,5.7,4.9,1.2,23.4,87.2,0.0,1005
01/01/2013,04:00,121,4.9,9.2,1.0,23.5,86.6,0.0,1006
01/01/2013,05:00,133,5.1,9.9,1.1,23.7,82.0,0.0,1006
01/01/2013,06:00,146,4.4,11.8,1.2,25.1,75.0,0.0,1008
01/01/2013,07:00,150,3.6,19.0,1.3,26.0,71.6,0.0,1008
01/01/2013,08:00,148,4.3,13.9,1.0,26.9,68.6,0.0,1008
01/01/2013,09:00,138,4.6,17.8,1.0,28.1,63.7,0.0,1008
01/01/2013,10:00,121,4.9,24.1,1.2,28.1,63.4,0.0,1008
01/01/2013,11:00,113,6.4,11.7,1.4,29.1,58.7,0.0,1008
01/01/2013,12:00,129,6.4,10.7,1.5,27.8,66.2,0.0,1008
01/01/2013,13:00,117,5.7,18.6,1.3,29.1,59.1,0.0,1007
01/01/2013,14:00,101,7.2,10.4,1.3,29.4,59.7,0.0,1006
01/01/2013,15:00,101,7.5,8.7,1.0,29.0,59.7,0.0,1006
01/01/2013,16:00,97,6.8,11.3,1.1,29.3,57.0,0.0,1005
01/01/2013,17:00,96,6.1,8.0,0.9,28.8,61.4,0.0,1006
01/01/2013,18:00,95,4.2,10.4,0.8,27.9,66.8,0.0,1007
01/01/2013,19:00,118,6.0,5.3,1.3,27.0,71.0,0.0,1007
01/01/2013,20:00,124,7.4,5.5,1.1,26.4,74.7,0.0,1007
01/01/2013,21:00,122,6.3,6.5,1.0,25.7,77.8,0.0,1008
01/01/2013,22:00,122,7.0,5.2,1.1,25.3,76.8,0.0,1008
01/01/2013,23:00,122,4.7,6.0,1.4,24.6,78.6,0.0,1008
02/01/2013,00:00,118,4.1,5.1,0.6,24.1,81.0,0.0,1007
02/01/2013,01:00,129,4.2,8.8,0.6,24.2,81.1,0.0,1006
02/01/2013,02:00,143,3.2,9.3,1.0,24.7,78.2,0.0,1006
02/01/2013,03:00,150,3.5,12.1,0.9,25.2,76.0,0.0,1006
02/01/2013,04:00,148,4.2,10.1,1.4,25.2,75.2,0.0,1006
02/01/2013,05:00,124,2.0,12.4,0.7,24.8,76.2,0.0,1006
02/01/2013,06:00,127,3.1,11.1,1.1,25.6,73.9,0.0,1007
02/01/2013,07:00,132,5.3,10.8,0.9,26.6,69.6,0.0,1007
02/01/2013,08:00,120,5.2,11.0,1.0,27.7,64.4,0.0,1007
02/01/2013,09:00,105,5.1,14.4,1.1,28.7,60.7,0.0,1007
02/01/2013,10:00,100,5.6,13.5,1.3,29.5,57.2,0.0,1007
02/01/2013,11:00,94,5.6,14.9,1.3,30.1,56.4,0.0,1006
02/01/2013,12:00,57,6.9,17.3,1.2,30.0,58.3,0.0,1005
02/01/2013,13:00,46,7.5,10.1,1.1,29.6,61.1,0.0,1005
02/01/2013,14:00,56,8.4,7.7,1.0,29.6,57.6,0.0,1004
02/01/2013,15:00,56,7.8,7.9,1.1,29.0,62.7,0.0,1004
02/01/2013,16:00,54,7.4,9.3,1.1,28.8,64.1,0.0,1004
02/01/2013,17:00,60,7.4,8.0,1.0,28.7,62.8,0.0,1004
02/01/2013,18:00,77,4.9,12.6,1.5,28.2,60.2,0.0,1005
02/01/2013,19:00,98,3.6,9.8,0.6,27.2,64.0,0.0,1006
02/01/2013,20:00,91,3.8,8.4,0.4,26.7,65.7,0.0,1006
02/01/2013,21:00,101,3.3,6.1,0.5,26.5,67.9,0.0,1007
02/01/2013,22:00,107,3.6,6.7,0.4,26.1,69.1,0.0,1007
02/01/2013,23:00,118,3.7,5.1,0.3,26.0,68.4,0.0,1007
03/01/2013,00:00,129,3.4,5.0,0.2,25.3,73.5,0.0,1006
03/01/2013,01:00,128,2.8,3.8,0.2,24.8,77.9,0.0,1006
03/01/2013,02:00,130,2.5,5.8,0.2,24.6,79.8,0.0,1006
03/01/2013,03:00,132,2.1,12.2,0.4,24.5,80.1,0.0,1005
03/01/2013,04:00,119,2.5,7.1,0.3,24.1,82.5,0.0,1005
03/01/2013,05:00,119,3.0,4.0,0.3,24.1,83.5,0.0,1006
03/01/2013,06:00,127,3.6,6.9,0.7,25.2,79.8,0.0,1007
03/01/2013,07:00,127,4.9,10.0,0.8,26.5,73.2,0.0,1007
03/01/2013,08:00,123,5.3,14.6,1.0,27.7,66.2,0.0,1007
03/01/2013,09:00,121,5.5,16.7,1.2,28.9,58.0,0.0,1007
03/01/2013,10:00,99,7.0,13.1,1.3,30.1,49.4,0.0,1007
03/01/2013,11:00,93,6.7,15.1,1.4,30.7,47.9,0.0,1006
03/01/2013,12:00,77,6.1,19.8,1.6,31.3,49.4,0.0,1006
03/01/2013,13:00,78,6.7,18.2,1.5,31.5,49.6,0.0,1005
03/01/2013,14:00,62,8.6,7.4,1.3,30.9,52.7,0.0,1005
03/01/2013,15:00,83,8.3,11.3,1.4,31.0,50.9,0.0,1004
03/01/2013,16:00,81,8.1,9.5,1.2,30.5,53.4,0.0,1004
03/01/2013,17:00,82,7.8,7.9,1.4,29.7,55.2,0.0,1005
03/01/2013,18:00,89,7.2,6.2,1.1,28.4,63.9,0.0,1005
03/01/2013,19:00,96,6.6,5.2,1.2,27.3,68.0,0.0,1006
03/01/2013,20:00,108,4.8,5.5,0.7,26.7,65.9,0.0,1006
03/01/2013,21:00,119,3.6,6.1,0.6,26.0,70.7,0.0,1007
03/01/2013,22:00,120,4.3,5.3,0.9,25.6,74.1,0.0,1007
03/01/2013,23:00,118,3.6,4.3,0.4,25.2,76.3,0.0,1007
04/01/2013,00:00,120,4.0,4.6,0.5,25.1,76.9,0.0,1006
04/01/2013,01:00,118,4.4,4.9,0.6,25.0,79.9,0.0,1006
04/01/2013,02:00,119,4.3,6.4,0.6,25.1,78.3,0.0,1005
04/01/2013,03:00,122,4.7,5.8,0.7,25.0,77.2,0.0,1005
04/01/2013,04:00,119,5.0,6.2,0.7,24.9,76.2,0.0,1006
04/01/2013,05:00,115,4.9,4.0,0.5,24.6,77.3,0.0,1006
04/01/2013,06:00,121,5.5,4.4,0.8,25.4,74.0,0.0,1007
04/01/2013,07:00,110,5.9,9.7,1.0,27.2,64.8,0.0,1007
04/01/2013,08:00,103,6.6,12.7,1.2,28.2,59.5,0.0,1008
04/01/2013,09:00,97,6.7,16.0,1.4,28.8,56.2,0.0,1008
04/01/2013,10:00,82,8.4,8.6,1.3,29.7,50.4,0.0,1007
04/01/2013,11:00,77,8.1,12.8,1.6,30.0,53.2,0.0,1007
04/01/2013,12:00,59,9.3,7.8,1.3,29.6,55.6,0.0,1006
04/01/2013,13:00,66,10.2,10.3,1.6,30.4,49.2,0.0,1005
04/01/2013,14:00,69,10.2,9.3,1.5,30.2,48.7,0.0,1005
04/01/2013,15:00,78,9.2,11.1,1.4,30.2,50.7,0.0,1005
04/01/2013,16:00,87,8.7,8.5,1.4,30.1,48.0,0.0,1005
04/01/2013,17:00,86,8.1,7.7,1.2,29.4,50.9,0.0,1005
04/01/2013,18:00,87,8.3,4.6,1.3,27.9,56.5,0.0,1006
04/01/2013,19:00,89,7.0,5.7,0.9,27.0,62.9,0.0,1006
04/01/2013,20:00,107,4.8,5.7,1.0,26.4,62.0,0.0,1007
04/01/2013,21:00,119,4.7,5.0,0.6,25.6,68.5,0.0,1007
04/01/2013,22:00,123,5.0,4.1,0.6,25.2,71.7,0.0,1007
04/01/2013,23:00,118,4.7,4.4,0.7,24.9,74.1,0.0,1007
05/01/2013,00:00,119,3.7,3.4,0.5,24.4,76.6,0.0,1007
05/01/2013,01:00,123,3.6,4.9,0.4,24.1,76.4,0.0,1006
05/01/2013,02:00,119,3.8,4.6,0.4,23.9,75.5,0.0,1006
05/01/2013,03:00,119,4.0,4.1,0.4,23.6,76.9,0.0,1006
05/01/2013,04:00,122,4.3,4.9,0.4,23.7,75.4,0.0,1006
05/01/2013,05:00,122,3.5,6.3,0.4,23.8,73.9,0.0,1007
05/01/2013,06:00,114,3.1,12.2,0.7,24.8,71.0,0.0,1007
05/01/2013,07:00,119,5.0,8.5,0.8,26.7,63.2,0.0,1008
05/01/2013,08:00,106,5.9,14.0,1.0,27.6,57.6,0.0,1008
05/01/2013,09:00,111,6.6,10.4,1.4,28.8,48.8,0.0,1008
05/01/2013,10:00,96,6.5,17.2,1.4,29.8,43.0,0.0,1008
05/01/2013,11:00,68,7.4,16.6,1.4,30.0,46.0,0.0,1008
05/01/2013,12:00,59,8.6,8.5,1.2,29.9,47.7,0.0,1007
05/01/2013,13:00,61,9.3,8.0,1.3,29.3,52.5,0.0,1007
05/01/2013,14:00,66,10.0,7.3,1.2,29.3,50.7,0.0,1007
05/01/2013,15:00,69,9.8,7.3,1.2,29.3,51.7,0.0,1006
05/01/2013,16:00,68,9.8,8.2,1.4,29.0,54.5,0.0,1006
05/01/2013,17:00,73,7.9,7.0,1.3,28.7,54.5,0.0,1007
05/01/2013,18:00,86,6.4,7.0,1.2,27.9,58.7,0.0,1008
05/01/2013,19:00,121,7.1,8.0,1.3,26.9,64.6,0.0,1008
05/01/2013,20:00,111,7.2,5.8,1.0,26.2,66.1,0.0,1009
05/01/2013,21:00,109,6.3,5.7,1.0,25.9,67.3,0.0,1009
05/01/2013,22:00,113,5.3,5.5,1.1,25.6,68.1,0.0,1010
05/01/2013,23:00,121,4.3,4.3,0.5,24.8,73.9,0.0,1009
06/01/2013,00:00,121,4.3,4.3,0.5,24.4,75.2,0.0,1009
06/01/2013,01:00,120,4.4,3.3,0.5,24.0,75.3,0.0,1008
06/01/2013,02:00,117,4.6,4.7,0.5,24.1,74.6,0.0,1008
06/01/2013,03:00,120,5.2,3.4,0.5,23.8,76.7,0.0,1007
06/01/2013,04:00,114,4.8,3.7,0.6,23.8,74.4,0.0,1008
06/01/2013,05:00,121,3.7,5.6,0.4,23.7,72.9,0.0,1008
06/01/2013,06:00,116,3.4,7.4,0.5,25.0,69.2,0.0,1009
06/01/2013,07:00,125,6.0,9.5,1.4,26.6,65.1,0.0,1009
06/01/2013,08:00,117,6.6,11.4,1.1,27.9,59.2,0.0,1009
06/01/2013,09:00,113,7.0,10.7,1.2,28.7,54.8,0.0,1009
06/01/2013,10:00,120,6.0,13.8,1.2,29.4,52.2,0.0,1009
06/01/2013,11:00,112,7.2,15.3,1.5,30.3,47.9,0.0,1008
06/01/2013,12:00,113,7.0,15.8,1.3,30.7,46.6,0.0,1008
06/01/2013,13:00,101,8.1,11.1,1.6,31.1,44.5,0.0,1007
06/01/2013,14:00,85,7.8,12.8,1.4,31.2,47.2,0.0,1007
06/01/2013,15:00,91,7.5,14.7,1.4,30.8,48.0,0.0,1006
06/01/2013,16:00,89,8.1,9.1,1.4,30.0,54.0,0.0,1007
06/01/2013,17:00,99,7.6,10.4,1.3,29.6,52.0,0.0,1007
06/01/2013,18:00,88,7.4,6.2,1.1,28.2,59.2,0.0,1008
06/01/2013,19:00,98,7.2,5.8,1.3,27.3,61.8,0.0,1009
06/01/2013,20:00,107,6.4,4.7,1.0,26.7,64.2,0.0,1009
06/01/2013,21:00,112,6.3,4.9,0.7,26.2,67.6,0.0,1010
06/01/2013,22:00,111,4.5,4.4,0.5,25.4,70.9,0.0,1010
06/01/2013,23:00,114,4.4,4.8,0.6,25.1,72.7,0.0,1009
07/01/2013,00:00,119,4.1,4.3,0.4,24.8,74.0,0.0,1009
07/01/2013,01:00,117,4.6,6.1,0.7,24.7,73.6,0.0,1008
07/01/2013,02:00,120,5.5,4.2,0.7,24.8,73.2,0.0,1008
07/01/2013,03:00,120,5.2,3.4,0.5,24.5,75.5,0.0,1007
07/01/2013,04:00,119,5.5,4.5,0.7,24.6,74.2,0.0,1008
07/01/2013,05:00,117,5.1,5.6,0.8,25.0,71.4,0.0,1009
07/01/2013,06:00,124,5.5,5.7,1.2,25.4,69.3,0.0,1009
07/01/2013,07:00,121,6.4,9.8,1.0,26.6,64.0,0.0,1010
07/01/2013,08:00,110,8.1,9.9,1.4,27.8,54.9,0.0,1010
07/01/2013,09:00,106,7.9,9.9,1.4,28.8,47.8,0.0,1009
07/01/2013,10:00,95,7.9,13.6,1.3,29.5,45.9,0.0,1009
07/01/2013,11:00,93,7.6,12.7,1.4,29.8,45.4,0.0,1009
07/01/2013,12:00,76,8.4,16.8,1.9,29.7,48.8,0.0,1008
07/01/2013,13:00,73,9.0,10.6,1.7,29.6,50.9,0.0,1007
07/01/2013,14:00,64,10.1,9.8,1.5,29.3,52.0,0.0,1007
07/01/2013,15:00,70,10.5,9.5,1.6,29.2,53.2,0.0,1006
07/01/2013,16:00,82,9.5,11.0,1.4,29.0,53.4,0.0,1006
07/01/2013,17:00,89,8.2,8.2,1.4,28.6,55.2,0.0,1007
07/01/2013,18:00,101,7.6,5.5,1.1,27.7,56.0,0.0,1008
07/01/2013,19:00,97,5.7,8.9,0.9,26.9,60.1,0.0,1009
07/01/2013,20:00,123,5.1,9.2,1.0,26.1,65.9,0.0,1009
07/01/2013,21:00,123,4.4,5.8,0.9,25.3,70.2,0.0,1010
07/01/2013,22:00,124,5.9,7.0,1.2,24.8,74.5,0.1,1009
07/01/2013,23:00,123,5.5,9.5,1.1,24.2,76.9,0.0,1009
08/01/2013,00:00,129,5.2,12.4,1.3,24.0,76.7,0.0,1008
08/01/2013,01:00,128,5.2,13.8,1.0,22.7,84.7,0.0,1007
08/01/2013,02:00,130,5.6,11.9,1.1,23.3,80.4,0.0,1007
08/01/2013,03:00,127,5.7,7.3,1.5,23.1,80.4,0.0,1006
08/01/2013,04:00,130,4.9,7.8,0.8,23.4,79.5,0.0,1007
08/01/2013,05:00,133,6.5,8.8,1.2,24.0,76.8,0.0,1007
08/01/2013,06:00,133,7.2,6.9,1.2,24.4,74.4,0.0,1007
08/01/2013,07:00,134,6.2,8.6,1.0,25.0,73.0,0.0,1008
08/01/2013,08:00,110,6.0,20.0,1.1,25.7,72.1,0.0,1008
08/01/2013,09:00,106,7.0,12.5,1.3,27.3,62.8,0.0,1007
08/01/2013,10:00,95,6.8,13.7,1.2,28.4,57.2,0.0,1007
08/01/2013,11:00,81,7.0,14.3,1.2,28.7,56.5,0.0,1007
08/01/2013,12:00,59,7.5,12.8,1.4,28.9,56.6,0.0,1006
08/01/2013,13:00,76,7.3,19.9,1.3,28.5,58.2,0.0,1005
08/01/2013,14:00,58,8.2,8.9,1.2,28.4,59.1,0.0,1004
08/01/2013,15:00,59,8.7,8.3,1.2,28.2,62.0,0.0,1003
08/01/2013,16:00,60,8.2,8.8,1.2,28.0,62.4,0.0,1003
08/01/2013,17:00,64,7.2,8.2,1.1,27.5,63.6,0.0,1004
08/01/2013,18:00,68,6.2,5.8,0.9,26.9,65.1,0.0,1004
08/01/2013,19:00,74,5.0,5.2,0.8,26.4,66.6,0.0,1005
08/01/2013,20:00,82,3.7,8.0,0.7,26.1,69.2,0.0,1005
08/01/2013,21:00,90,3.2,6.0,0.4,25.7,72.1,0.0,1005
08/01/2013,22:00,97,2.7,8.8,0.3,25.6,72.8,0.0,1005
08/01/2013,23:00,110,2.2,4.9,0.2,25.3,72.5,0.0,1005
09/01/2013,00:00,118,2.8,5.2,0.2,25.1,73.4,0.0,1004
09/01/2013,01:00,123,2.4,4.6,0.2,24.7,74.5,0.0,1003
09/01/2013,02:00,122,1.9,6.7,0.2,24.4,75.8,0.0,1003
09/01/2013,03:00,123,2.0,6.0,0.4,24.0,77.8,0.0,1002
09/01/2013,04:00,127,2.3,5.4,0.2,24.4,76.3,0.0,1003
09/01/2013,05:00,124,2.5,4.4,0.3,24.1,78.0,0.0,1003
09/01/2013,06:00,124,2.7,8.5,0.6,24.6,76.1,0.0,1003
09/01/2013,07:00,111,2.0,38.1,1.0,26.4,68.8,0.0,1004
09/01/2013,08:00,41,1.8,41.3,1.0,27.4,63.1,0.0,1004
09/01/2013,09:00,8,2.0,176.0,1.0,28.2,57.8,0.0,1004
09/01/2013,10:00,2,3.0,29.5,1.3,28.8,56.2,0.0,1003
09/01/2013,11:00,353,3.8,22.3,1.3,29.1,55.5,0.0,1002
09/01/2013,12:00,5,4.2,175.4,1.2,29.4,51.8,0.0,1002
09/01/2013,13:00,357,4.6,18.6,1.1,30.0,49.1,0.0,1001
09/01/2013,14:00,355,4.6,13.9,0.9,30.1,49.0,0.0,1000
09/01/2013,15:00,360,4.5,16.2,0.9,30.2,48.0,0.0,999
09/01/2013,16:00,6,4.8,178.6,0.8,29.7,51.7,0.0,999
09/01/2013,17:00,8,4.0,180.3,0.7,28.8,57.2,0.0,999
09/01/2013,18:00,15,3.7,9.2,0.6,27.8,63.8,0.0,1000
09/01/2013,19:00,26,2.7,8.2,0.5,27.2,67.7,0.0,1001
09/01/2013,20:00,31,2.7,8.6,0.4,27.0,71.5,0.0,1002
09/01/2013,21:00,27,3.3,5.5,0.7,26.7,74.0,0.0,1002
09/01/2013,22:00,25,2.6,6.4,0.4,26.2,74.0,0.0,1002
09/01/2013,23:00,35,2.5,4.5,0.3,26.0,74.2,0.0,1002
10/01/2013,00:00,49,1.1,24.9,0.5,25.6,76.4,0.0,1001
10/01/2013,01:00,36,0.9,24.0,0.3,25.4,76.6,0.0,1001
10/01/2013,02:00,7,0.1,184.3,0.1,25.0,77.5,0.0,1000
10/01/2013,03:00,315,0.3,51.1,0.2,25.1,77.3,0.0,1000
10/01/2013,04:00,354,0.5,29.1,0.3,25.1,77.5,0.0,1001
10/01/2013,05:00,311,0.2,84.6,0.2,25.0,78.0,0.0,1001
10/01/2013,06:00,277,0.4,79.5,0.6,26.0,75.4,0.0,1002
10/01/2013,07:00,314,3.6,14.4,0.9,27.3,67.8,0.0,1003
10/01/2013,08:00,307,4.3,11.9,0.8,27.9,64.9,0.0,1003
10/01/2013,09:00,307,4.1,15.2,0.9,28.1,64.1,0.0,1003
10/01/2013,10:00,306,3.8,17.3,1.0,28.9,59.7,0.0,1003
10/01/2013,11:00,1,3.4,22.2,1.2,29.6,57.3,0.0,1003
10/01/2013,12:00,341,3.9,27.8,1.0,30.0,56.8,0.0,1003
10/01/2013,13:00,352,4.9,20.0,1.1,30.2,56.5,0.0,1002
10/01/2013,14:00,6,5.4,11.7,0.9,29.7,57.6,0.0,1002
10/01/2013,15:00,8,5.0,179.4,0.9,29.6,57.1,0.0,1001
10/01/2013,16:00,39,4.1,14.5,0.7,29.8,55.7,0.0,1001
10/01/2013,17:00,57,5.3,8.9,0.7,28.7,62.8,0.0,1001
10/01/2013,18:00,62,4.8,7.0,0.8,27.7,67.9,0.0,1002
10/01/2013,19:00,59,4.0,5.8,0.7,27.3,70.6,0.0,1003
10/01/2013,20:00,58,4.7,5.7,0.7,27.1,71.8,0.0,1004
10/01/2013,21:00,48,4.5,5.9,0.6,27.1,71.6,0.0,1004
10/01/2013,22:00,49,4.2,6.0,0.8,26.7,70.9,0.0,1005
10/01/2013,23:00,48,4.3,5.0,0.6,26.6,70.7,0.0,1005
11/01/2013,00:00,54,3.7,5.1,0.7,26.2,69.9,0.0,1004
11/01/2013,01:00,88,1.7,33.1,0.5,25.7,72.5,0.0,1004
11/01/2013,02:00,139,1.1,20.9,0.5,25.7,73.8,0.0,1004
11/01/2013,03:00,114,2.1,10.5,0.5,25.8,74.0,0.0,1004
11/01/2013,04:00,107,2.6,13.3,0.3,25.1,77.9,0.0,1005
11/01/2013,05:00,127,2.8,4.0,0.3,25.0,77.8,0.0,1005
11/01/2013,06:00,120,2.8,5.6,0.4,25.2,78.6,0.0,1006
11/01/2013,07:00,124,3.0,10.7,0.5,26.4,73.8,0.0,1007
11/01/2013,08:00,112,2.5,20.7,0.7,27.7,67.6,0.0,1007
11/01/2013,09:00,107,3.1,26.4,0.9,28.9,62.9,0.0,1007
11/01/2013,10:00,84,4.1,22.3,1.5,29.6,61.6,0.0,1007
11/01/2013,11:00,60,6.1,14.5,1.3,30.3,60.0,0.0,1007
11/01/2013,12:00,56,7.4,9.6,1.1,30.5,58.5,0.0,1006
11/01/2013,13:00,64,7.5,10.1,1.2,30.5,58.9,0.0,1006
11/01/2013,14:00,62,8.9,8.6,1.1,30.0,63.2,0.0,1005
11/01/2013,15:00,59,8.9,7.7,1.1,29.5,67.4,0.0,1005
11/01/2013,16:00,62,8.6,7.3,1.1,29.1,68.5,0.0,1005
11/01/2013,17:00,62,8.2,7.4,1.2,29.0,70.2,0.0,1006
11/01/2013,18:00,62,7.3,5.9,1.0,28.3,73.9,0.0,1006
11/01/2013,19:00,77,5.8,7.0,1.0,27.8,77.2,0.0,1007
11/01/2013,20:00,85,5.3,5.3,0.9,27.5,77.6,0.0,1007
11/01/2013,21:00,87,4.7,4.8,0.7,27.2,78.8,0.0,1008
11/01/2013,22:00,86,4.8,5.3,0.8,27.1,79.5,0.0,1008
11/01/2013,23:00,89,4.6,5.4,0.8,26.9,78.6,0.0,1008
12/01/2013,00:00,91,3.7,5.3,0.6,26.8,79.4,0.0,1008
12/01/2013,01:00,95,2.5,6.4,0.4,26.5,80.0,0.0,1007
12/01/2013,02:00,114,2.7,10.9,0.4,26.1,80.0,0.0,1007
12/01/2013,03:00,119,2.6,9.7,0.3,25.6,82.3,0.0,1007
12/01/2013,04:00,120,2.5,6.8,0.4,25.4,82.9,0.0,1007
12/01/2013,05:00,121,3.2,3.8,0.4,25.4,82.2,0.0,1008
12/01/2013,06:00,121,3.7,5.5,0.5,26.1,78.4,0.0,1008
12/01/2013,07:00,99,3.8,17.5,0.7,27.7,71.4,0.0,1009
12/01/2013,08:00,74,4.2,15.4,0.8,28.4,67.4,0.0,1009
12/01/2013,09:00,57,4.4,19.9,1.2,29.0,61.9,0.0,1009
12/01/2013,10:00,59,4.9,13.3,1.1,29.7,56.8,0.0,1009
12/01/2013,11:00,53,6.0,14.2,1.1,29.9,55.2,0.0,1009
12/01/2013,12:00,52,6.5,11.7,1.0,30.1,55.1,0.0,1008
12/01/2013,13:00,48,7.0,10.3,1.0,29.9,54.9,0.0,1007
12/01/2013,14:00,52,6.9,11.0,1.1,29.7,56.8,0.0,1007
12/01/2013,15:00,58,6.8,11.9,1.0,29.4,60.4,0.0,1007
12/01/2013,16:00,55,7.0,9.9,1.0,29.1,60.8,0.0,1007
12/01/2013,17:00,52,6.1,9.0,1.1,28.8,62.2,0.0,1007
12/01/2013,18:00,48,5.4,7.0,1.0,28.0,68.2,0.0,1007
12/01/2013,19:00,62,4.3,6.8,0.8,27.3,74.3,0.0,1007
12/01/2013,20:00,64,5.1,5.9,1.0,27.2,77.0,0.0,1008
12/01/2013,21:00,69,5.5,5.9,1.0,27.2,75.2,0.0,1008
12/01/2013,22:00,82,4.4,8.3,0.9,27.0,73.8,0.0,1008
12/01/2013,23:00,88,4.4,4.9,0.7,26.6,75.7,0.0,1008
13/01/2013,00:00,77,4.6,5.3,0.8,26.6,75.5,0.0,1007
13/01/2013,01:00,67,3.9,6.8,0.7,26.6,75.0,0.0,1006
13/01/2013,02:00,93,2.8,9.4,0.4,26.2,76.2,0.0,1006
13/01/2013,03:00,113,2.7,11.7,0.3,25.7,78.0,0.0,1006
13/01/2013,04:00,120,2.7,8.4,0.3,25.4,79.1,0.0,1006
13/01/2013,05:00,119,2.6,12.0,0.6,24.8,82.3,0.0,1007
13/01/2013,06:00,117,3.3,7.6,0.5,25.2,81.1,0.0,1008
13/01/2013,07:00,105,2.9,28.5,1.0,26.9,73.9,0.0,1008
13/01/2013,08:00,64,4.2,15.2,1.3,27.7,69.7,0.0,1008
13/01/2013,09:00,60,5.4,13.6,1.0,28.5,61.5,0.0,1008
13/01/2013,10:00,53,5.6,13.6,1.1,29.2,55.8,0.0,1008
13/01/2013,11:00,59,6.2,13.5,1.1,29.4,53.3,0.0,1007
13/01/2013,12:00,55,6.2,13.5,1.1,29.5,52.9,0.0,1007
13/01/2013,13:00,45,6.5,12.6,1.0,29.9,50.1,0.0,1007
13/01/2013,14:00,41,6.0,12.2,1.2,29.7,49.6,0.0,1006
13/01/2013,15:00,29,4.6,15.4,0.9,29.8,48.7,0.0,1006
13/01/2013,16:00,35,4.3,15.5,0.9,29.2,54.8,0.0,1006
13/01/2013,17:00,37,3.9,10.4,0.8,28.5,61.6,0.0,1006
13/01/2013,18:00,37,3.7,8.3,0.6,27.6,68.1,0.0,1006
13/01/2013,19:00,37,2.4,7.8,0.4,26.9,69.1,0.0,1006
13/01/2013,20:00,33,2.6,6.0,0.3,26.6,69.4,0.0,1007
13/01/2013,21:00,38,2.8,11.5,0.4,26.6,70.9,0.0,1007
13/01/2013,22:00,47,3.5,7.2,0.6,26.6,70.0,0.0,1007
13/01/2013,23:00,43,3.4,5.4,0.5,26.5,68.5,0.0,1007
14/01/2013,00:00,20,2.6,6.9,0.4,26.3,68.4,0.0,1006
14/01/2013,01:00,17,2.3,4.3,0.2,26.2,68.2,0.0,1006
14/01/2013,02:00,15,1.5,17.6,0.5,25.3,71.3,0.0,1006
14/01/2013,03:00,88,0.6,54.1,0.3,24.9,73.3,0.0,1006
14/01/2013,04:00,171,0.9,21.3,0.4,25.2,72.6,0.0,1006
14/01/2013,05:00,91,0.9,34.3,0.3,25.1,72.6,0.0,1006
14/01/2013,06:00,4,1.5,173.3,0.7,25.7,71.0,0.0,1006
14/01/2013,07:00,321,3.1,23.8,0.8,27.4,62.8,0.0,1006
14/01/2013,08:00,302,3.5,19.2,0.9,27.6,65.0,0.0,1006
14/01/2013,09:00,309,2.8,24.9,1.2,28.7,57.6,0.0,1006
14/01/2013,10:00,314,4.1,18.0,1.1,29.3,55.8,0.0,1005
14/01/2013,11:00,318,5.1,12.5,1.0,29.8,55.8,0.0,1005
14/01/2013,12:00,351,6.2,15.6,1.3,30.1,53.9,0.0,1004
14/01/2013,13:00,354,6.7,8.4,1.0,29.8,53.9,0.0,1004
14/01/2013,14:00,353,6.9,10.2,0.9,29.5,57.2,0.0,1003
14/01/2013,15:00,354,6.7,9.3,1.1,29.2,58.0,0.0,1003
14/01/2013,16:00,350,6.2,11.0,1.0,28.8,60.0,0.0,1003
14/01/2013,17:00,345,5.4,8.9,0.8,28.4,61.6,0.0,1004
14/01/2013,18:00,347,4.4,8.4,0.8,27.9,65.3,0.0,1005
14/01/2013,19:00,345,3.6,8.0,0.7,27.4,67.0,0.0,1005
14/01/2013,20:00,347,3.2,6.5,0.6,27.1,67.9,0.0,1005
14/01/2013,21:00,349,2.5,6.0,0.5,27.0,70.4,0.0,1005
14/01/2013,22:00,353,2.5,6.4,0.3,26.7,72.7,0.0,1006
14/01/2013,23:00,0,2.6,5.2,0.4,26.6,73.0,0.0,1005
15/01/2013,00:00,13,3.5,6.3,0.6,26.7,72.9,0.0,1005
15/01/2013,01:00,7,3.6,175.3,0.6,26.7,71.1,0.0,1005
15/01/2013,02:00,356,3.2,4.8,0.6,26.5,71.0,0.0,1005
15/01/2013,03:00,2,3.4,9.7,0.6,26.6,70.3,0.0,1006
15/01/2013,04:00,60,1.2,48.7,0.4,26.2,70.7,0.0,1006
15/01/2013,05:00,64,2.1,33.2,0.8,26.3,70.5,0.0,1007
15/01/2013,06:00,36,2.6,6.0,0.4,26.7,67.3,0.0,1007
15/01/2013,07:00,26,3.8,9.9,0.7,27.5,64.3,0.0,1008
15/01/2013,08:00,12,3.9,12.6,0.8,27.8,62.0,0.0,1007
15/01/2013,09:00,357,3.9,16.7,0.9,28.1,59.8,0.0,1008
15/01/2013,10:00,1,3.8,18.0,1.1,28.9,54.0,0.0,1008
15/01/2013,11:00,7,4.2,175.0,1.2,28.9,54.3,0.0,1008
15/01/2013,12:00,357,4.1,14.9,1.0,29.1,55.3,0.0,1007
15/01/2013,13:00,359,3.9,18.9,1.2,29.6,51.0,0.0,1007
15/01/2013,14:00,359,5.3,13.7,0.9,29.6,48.8,0.0,1006
15/01/2013,15:00,29,4.8,13.6,0.9,29.0,52.1,0.0,1005
15/01/2013,16:00,43,4.4,11.3,0.9,28.4,56.1,0.0,1005
15/01/2013,17:00,62,4.4,10.6,0.7,28.1,60.2,0.0,1006
15/01/2013,18:00,77,5.2,7.2,0.8,27.6,62.2,0.0,1006
15/01/2013,19:00,78,5.0,4.8,0.6,27.2,63.4,0.0,1006
15/01/2013,20:00,83,4.2,7.7,1.1,26.8,64.4,0.0,1006
15/01/2013,21:00,98,2.6,18.7,0.7,26.3,67.1,0.0,1007
15/01/2013,22:00,107,3.4,20.0,0.6,26.2,68.6,0.0,1007
15/01/2013,23:00,120,3.7,4.6,0.4,25.8,68.6,0.0,1007
16/01/2013,00:00,119,3.1,3.7,0.4,25.4,70.7,0.0,1007
16/01/2013,01:00,119,2.7,4.8,0.3,25.2,72.3,0.0,1006
16/01/2013,02:00,125,2.8,12.5,0.6,25.7,71.8,0.2,1006
16/01/2013,03:00,109,2.4,22.8,0.5,24.8,77.0,1.2,1006
16/01/2013,04:00,126,3.4,5.9,0.6,25.1,75.5,0.0,1006
16/01/2013,05:00,124,4.0,6.6,0.5,25.1,75.4,0.0,1006
16/01/2013,06:00,117,5.0,6.7,0.7,25.5,74.8,0.0,1007
16/01/2013,07:00,98,5.0,12.8,0.9,27.0,69.1,0.0,1007
16/01/2013,08:00,77,6.3,9.6,1.3,28.0,65.2,0.0,1007
16/01/2013,09:00,73,6.9,11.9,1.4,28.5,62.7,0.0,1007
16/01/2013,10:00,64,8.0,11.2,1.2,28.7,59.3,0.0,1007
16/01/2013,11:00,59,7.2,13.2,1.2,28.9,57.2,0.0,1007
16/01/2013,12:00,67,7.1,15.4,1.2,29.0,57.4,0.0,1007
16/01/2013,13:00,65,6.9,15.3,1.2,29.0,56.7,0.0,1007
16/01/2013,14:00,60,6.9,11.4,1.3,29.0,59.0,0.0,1006
16/01/2013,15:00,69,6.7,12.2,1.1,28.9,59.9,0.0,1006
16/01/2013,16:00,65,6.6,10.5,1.1,28.5,62.7,0.0,1006
16/01/2013,17:00,64,6.0,10.5,0.9,28.2,62.5,0.0,1006
16/01/2013,18:00,71,5.7,7.0,1.0,27.6,64.6,0.0,1007
16/01/2013,19:00,100,4.5,14.6,1.0,26.8,68.8,0.0,1007
16/01/2013,20:00,117,4.2,5.5,0.6,25.9,73.5,0.0,1007
16/01/2013,21:00,119,4.3,4.5,0.5,25.7,69.2,0.0,1008
16/01/2013,22:00,121,4.3,4.7,0.6,25.4,72.1,0.0,1008
16/01/2013,23:00,120,3.4,4.9,0.5,25.0,76.9,0.0,1007
17/01/2013,00:00,122,3.6,5.2,0.5,24.7,79.9,0.0,1006
17/01/2013,01:00,124,4.1,4.9,0.5,24.4,80.7,0.0,1006
17/01/2013,02:00,124,3.2,4.7,0.6,24.4,80.5,0.0,1006
17/01/2013,03:00,122,3.4,5.0,0.6,24.5,80.9,0.0,1006
17/01/2013,04:00,119,2.8,6.6,0.3,24.6,80.9,0.0,1006
17/01/2013,05:00,128,3.6,4.5,0.6,24.9,79.4,0.0,1007
17/01/2013,06:00,126,4.0,7.7,0.6,25.7,76.5,0.0,1007
17/01/2013,07:00,113,4.2,9.9,0.7,27.2,71.1,0.0,1008
17/01/2013,08:00,95,3.9,22.2,1.0,28.1,64.7,0.0,1008
17/01/2013,09:00,70,4.1,18.6,1.1,29.3,58.9,0.0,1007
17/01/2013,10:00,57,5.8,11.9,1.2,29.7,55.1,0.0,1007
17/01/2013,11:00,52,6.3,11.9,1.2,30.0,53.7,0.0,1006
17/01/2013,12:00,45,6.9,10.4,1.2,29.9,55.0,0.0,1005
17/01/2013,13:00,42,7.4,10.1,1.1,29.7,56.3,0.0,1005
17/01/2013,14:00,46,7.4,10.9,1.2,29.4,59.8,0.0,1004
17/01/2013,15:00,45,7.1,12.4,1.2,28.9,64.2,0.0,1004
17/01/2013,16:00,47,6.7,10.8,1.1,28.6,63.7,0.0,1004
17/01/2013,17:00,47,6.1,9.4,0.8,28.3,63.8,0.0,1005
17/01/2013,18:00,52,5.0,8.6,0.9,27.8,65.7,0.0,1005
17/01/2013,19:00,55,3.9,8.5,0.8,27.4,67.6,0.0,1006
17/01/2013,20:00,62,3.2,10.2,0.7,27.3,68.4,0.0,1007
17/01/2013,21:00,84,2.9,13.8,0.5,27.0,69.7,0.0,1007
17/01/2013,22:00,97,2.9,4.2,0.5,26.4,71.3,0.0,1007
17/01/2013,23:00,126,2.7,14.1,0.5,25.7,71.9,0.0,1007
18/01/2013,00:00,129,3.0,3.7,0.3,25.2,72.0,0.0,1006
18/01/2013,01:00,125,2.8,4.1,0.4,25.0,73.3,0.0,1005
18/01/2013,02:00,125,2.9,4.1,0.3,24.9,75.1,0.0,1005
18/01/2013,03:00,125,3.2,2.9,0.2,25.0,77.2,0.0,1004
18/01/2013,04:00,123,3.3,3.7,0.3,24.6,78.8,0.0,1005
18/01/2013,05:00,124,3.0,5.4,0.5,24.6,79.5,0.0,1005
18/01/2013,06:00,122,2.6,7.1,0.6,25.2,78.5,0.0,1006
18/01/2013,07:00,124,3.5,11.6,0.7,26.9,71.4,0.0,1006
18/01/2013,08:00,90,2.5,25.0,1.1,28.0,66.0,0.0,1006
18/01/2013,09:00,60,3.9,17.8,1.2,28.7,63.9,0.0,1006
18/01/2013,10:00,46,5.1,13.9,1.1,29.0,62.9,0.0,1006
18/01/2013,11:00,43,5.2,16.0,1.3,29.4,60.0,0.0,1006
18/01/2013,12:00,31,5.8,13.1,1.1,29.4,60.9,0.0,1005
18/01/2013,13:00,16,6.1,14.5,1.1,28.8,64.3,0.0,1005
18/01/2013,14:00,22,5.9,11.5,1.1,28.8,62.8,0.0,1004
18/01/2013,15:00,29,5.8,13.2,1.1,29.1,58.8,0.0,1003
18/01/2013,16:00,33,5.4,13.9,1.1,28.7,60.9,0.0,1004
18/01/2013,17:00,34,4.9,12.0,0.9,28.2,61.6,0.0,1004
18/01/2013,18:00,35,4.3,11.5,0.8,27.6,64.0,0.0,1005
18/01/2013,19:00,34,3.5,5.9,0.6,27.1,66.0,0.0,1005
18/01/2013,20:00,29,3.6,5.2,0.6,27.0,66.6,0.0,1006
18/01/2013,21:00,32,2.7,7.2,0.4,26.6,68.2,0.0,1006
18/01/2013,22:00,39,2.6,5.7,0.4,26.3,68.4,0.0,1006
18/01/2013,23:00,38,1.1,15.6,0.4,26.0,70.2,0.0,1006
19/01/2013,00:00,84,0.8,33.4,0.3,26.0,71.2,0.0,1005
19/01/2013,01:00,101,1.0,15.3,0.2,25.8,72.3,0.0,1005
19/01/2013,02:00,124,1.6,6.0,0.2,25.8,73.2,0.0,1004
19/01/2013,03:00,116,2.0,4.6,0.2,25.7,74.3,0.0,1004
19/01/2013,04:00,112,2.5,3.0,0.2,25.5,76.4,0.0,1004
19/01/2013,05:00,113,2.4,7.3,0.3,25.2,76.4,0.0,1004
19/01/2013,06:00,101,2.3,13.1,0.4,25.6,73.6,0.0,1005
19/01/2013,07:00,40,3.2,26.7,1.3,27.1,65.1,0.0,1005
19/01/2013,08:00,35,4.4,18.2,1.0,28.1,59.9,0.0,1005
19/01/2013,09:00,52,4.6,18.9,1.2,28.4,57.3,0.0,1005
19/01/2013,10:00,58,4.3,21.0,1.3,28.5,57.5,0.0,1005
19/01/2013,11:00,50,4.9,17.8,1.4,28.7,57.9,0.0,1004
19/01/2013,12:00,63,5.0,17.8,1.2,28.7,59.0,0.0,1004
19/01/2013,13:00,49,5.1,16.5,1.4,28.8,60.1,0.0,1004
19/01/2013,14:00,60,5.3,20.1,1.2,28.5,63.3,0.0,1003
19/01/2013,15:00,64,5.3,13.9,1.2,28.4,65.3,0.0,1003
19/01/2013,16:00,66,5.7,12.2,1.2,28.4,66.3,0.0,1002